Tracking 18984 objects as of 23-Feb-2018
HD Live streaming from Space Station
objects crossing your sky now

FENGYUN 1C DEB

Track FENGYUN 1C DEB now!
10-day predictions


NORAD ID: 30385
Int'l Code: 1999-025ACY
Perigee: 690.1 km
Apogee: 882.6 km
Inclination: 99.1 °
Period: 100.4 minutes
Semi major axis: 7157 km
RCS: 0.023 m2 (small)
Launch date: May 10, 1999
Source: People's Republic of China (PRC)
Launch site: Taiyaun Space Center, China (TSC)

Note: This is SATELLITE DEBRIS
aabbcc
Your satellite tracking list
Your tracking list is empty




NASA's NSSDC Master Catalog

Two Line Element Set (TLE):
1 30385U 99025ACY 18054.53858726  .00000103  00000-0  50600-4 0  9995
2 30385  99.0725 270.1328 0134478 347.1394  69.9539 14.33750687579189
Source of the keplerian elements: AFSPC